[[{"header":{"parameterUnit":"m.s-1","parameterCategory":1,"la1":30.2991,"la2":30.254,"lo1":-89.0895,"lo2":-89.0444,"dy":0.0017,"dx":0.0017,"nx":28,"ny":28,"refTime":"2025-01-12T09:00:00:Z","depth":0,"parameterNumber":2,"parameterNumberName":"U-component_of_WINDS"},"data":[0,0,0,0,0,0,0,0,0,0,0,0,0,0,0,0,0,0,0,0,0,0,0,0,0,0,0,0,0,0,0,0,0,0,0,0,0,0,0,0,0,0,0,0,0,0,0,0,0,0,0,0,0,0,0,0,0,0,-5.6191,-5.6193,0,-5.6417,-5.6419,-5.6422,-5.6342,-5.6336,-5.6331,-5.6327,-5.6559,-5.657,-5.6581,0,0,0,0,0,0,0,0,0,0,0,0,0,-5.5692,-5.5701,-5.6191,-5.6194,-5.6196,-5.6416,-5.6419,-5.6422,-5.6342,-5.6336,-5.633,-5.6324,-5.6556,-5.6569,-5.6582,0,0,0,0,0,0,0,0,0,0,0,0,0,-5.5912,-5.5704,-5.619,-5.6183,-5.6185,-5.6416,-5.6419,-5.6423,-5.6344,-5.6336,-5.6329,-5.6321,-5.6552,-5.6567,-5.6584,-5.6836,0,0,-5.6633,-5.6641,0,0,0,0,0,0,0,0,-5.59,-5.593,-5.6181,-5.6184,-5.6186,-5.6343,-5.6329,-5.6562,-5.6346,-5.6283,-5.6327,-5.6318,-5.6494,-5.6514,-5.6573,-5.6847,-5.6857,-5.6635,-5.6645,-5.6652,-5.6656,0,0,0,0,0,0,0,-5.5885,-5.592,-5.628,-5.6185,-5.6188,-5.6169,-5.6192,-5.6372,-5.6428,-5.6288,-5.6283,-5.6311,-5.6493,-5.6558,-5.6578,-5.686,-5.6634,-5.6649,-5.6659,-5.6665,-5.7351,-5.7359,0,0,0,0,0,0,-5.5868,-5.5908,-5.6273,-5.6287,-5.6021,-5.6184,-5.621,-5.63,-5.6426,-5.6438,-5.6317,-5.6306,-5.6533,-5.6559,-5.6586,-5.6888,-5.6652,-5.6667,-5.6676,-5.7343,-5.7353,-5.7362,0,0,0,0,0,0,-5.5857,-5.5901,-5.6264,-5.6096,-5.6141,-5.6201,-5.6303,-5.6309,-5.6373,-5.6448,-5.6457,-5.6372,-5.6529,-5.6563,-5.6774,-5.6895,-5.6674,-5.6689,-5.7333,-5.7346,-5.7357,-5.7496,0,0,0,0,0,0,-5.5844,-5.5898,-5.5994,-5.6099,-5.615,-5.6448,-5.6311,-5.6319,-5.6401,-5.6389,-5.6502,-5.6513,-5.6525,-5.675,-5.679,-5.6914,-5.6702,-5.7322,-5.7338,-5.7353,-5.7481,-5.7512,-5.7538,0,0,0,0,0,-5.5826,-5.6024,-5.5999,-5.6044,-5.6271,-5.6455,-5.6484,-5.6493,-5.6411,-5.6508,-5.6556,-5.651,-5.6876,-5.6772,-5.6817,-5.6947,-5.7314,-5.7334,-5.7352,-5.7468,-5.7505,-5.7537,0,0,0,0,0,0,-5.5932,-5.6038,-5.6011,-5.6249,-5.6344,-5.6441,-5.6563,-5.6533,-5.6653,-5.6637,-5.6644,-5.667,-5.6887,-5.6939,-5.6821,-5.7198,-5.7083,-5.7112,-5.7155,-5.7192,-5.722,-5.7202,-5.6716,0,0,0,0,0,-5.5983,-5.6123,-5.6208,-5.641,-5.6459,-5.6504,-5.6584,-5.6583,-5.6681,-5.6721,-5.6784,-5.6882,-5.7018,-5.7108,-5.7239,-5.7489,-5.7511,-5.76,-5.7629,-5.7652,-5.7676,-5.7811,-5.7851,-5.7424,-5.7424,-5.7424,0,0,-5.609,-5.6165,-5.6253,-5.6434,-5.6507,-5.6651,-5.6538,-5.6696,-5.6803,-5.6745,-5.6947,-5.6998,-5.7107,-5.7338,-5.7443,-5.7388,-5.78,-5.7676,-5.7694,-5.7706,-5.7835,-5.7875,-5.7911,-5.7437,-5.7435,-5.7432,0,0,-5.6358,-5.643,-5.6606,-5.6681,-5.6793,-5.6822,-5.6864,-5.6967,-5.6998,-5.7201,-5.716,-5.7289,-5.7525,-5.7604,-5.7675,-5.7975,-5.7936,-5.8018,-5.8167,-5.8298,-5.8332,-5.8362,-5.8467,-5.8505,-5.8042,-5.8042,-5.8042,0,-5.6477,-5.6693,-5.67,-5.6862,-5.6942,-5.6896,-5.7074,-5.7147,-5.7296,-5.7353,-5.7289,-5.7584,-5.7654,-5.7903,-5.7976,-5.8036,-5.8084,-5.8003,-5.8326,-5.8357,-5.8384,-5.8485,-5.8525,-5.8051,-5.805,-5.8049,-5.8048,0,-5.6833,-5.6984,-5.7112,-5.7257,-5.7352,-5.7521,-5.7553,-5.7649,-5.7641,-5.7676,-5.7884,-5.7967,-5.8113,-5.8172,-5.8166,-5.8421,-5.8383,-5.8323,-5.8208,-5.8434,-5.8528,-5.8567,-5.8064,-5.8061,-5.8058,-5.8056,0,0,-5.7171,-5.7319,-5.7365,-5.743,-5.7551,-5.7668,-5.7836,-5.7978,-5.8059,-5.8165,-5.8304,-5.8506,-5.8451,-5.8532,-5.8535,-5.8651,-5.8881,-5.8577,-5.8579,-5.8629,-5.9166,-5.9207,-5.9252,-5.8857,-5.8865,-5.8871,-5.9156,0,-5.7448,-5.7741,-5.7752,-5.8019,-5.8158,-5.8118,-5.8264,-5.8354,-5.8392,-5.8516,-5.8558,-5.87,-5.8619,-5.8667,-5.878,-5.8829,-5.8989,-5.8809,-5.8987,-5.8993,-5.8958,-5.9302,-5.9347,-5.9611,-5.9193,-5.9199,-5.9204,0,-5.7808,-5.7924,-5.8205,-5.8306,-5.8365,-5.8496,-5.8627,-5.8746,-5.8848,-5.8868,-5.8959,-5.8945,-5.9116,-5.8997,-5.9233,-5.9111,-5.9184,-5.922,-5.923,-5.9245,-5.911,-5.9324,-5.9696,-5.9735,-5.9262,-5.9258,-5.9253,0,-5.8024,-5.8251,-5.8448,-5.8506,-5.8629,-5.8722,-5.8778,-5.8872,-5.8957,-5.9072,-5.9127,-5.9262,-5.9335,-5.944,-5.9462,-5.9373,-5.9698,-5.9581,-5.9718,-5.9718,-5.9786,-5.9781,-6.0173,-5.9839,-5.9838,-5.9837,-5.9836,0,-5.833,-5.8503,-5.8547,-5.8668,-5.8861,-5.8873,-5.9064,-5.9113,-5.9198,-5.9328,-5.9303,-5.9425,-5.9448,-5.9577,-5.9596,-5.9787,-5.9821,-5.9842,-5.9844,-5.9842,-5.984,-5.9889,-5.987,-5.9848,-5.9845,-5.9843,-5.9841,0,-5.8602,-5.8639,-5.8851,-5.8951,-5.898,-5.9118,-5.9203,-5.9319,-5.9355,-5.952,-5.956,-5.9617,-5.9766,-5.9799,-5.9977,-5.999,-6.0217,-6.0203,-6.0182,-6.018,-6.0314,-6.03,-6.075,-6.0809,-6.0438,-6.0442,-6.0445,0,-5.8793,-5.8925,-5.9039,-5.9124,-5.9185,-5.9322,-5.9409,-5.9428,-5.9519,-5.9645,-5.9746,-5.9893,-6.001,-6.0251,-6.0308,-6.0444,-6.0431,-6.058,-6.0451,-6.0445,-6.0431,-6.0421,-6.0434,-6.0603,-6.0607,-6.061,-6.0613,0,-5.9127,-5.9139,-5.9264,-5.9397,-5.9501,-5.9607,-5.9707,-5.9779,-5.9811,-5.9915,-6.0067,-6.0159,-6.034,-6.0486,-6.0622,-6.068,-6.0652,-6.0654,-6.0692,-6.069,-6.0671,-6.0681,-6.0246,-6.0642,-6.0639,-6.0637,-6.0636,-6.0635,-5.9362,-5.9477,-5.9576,-5.9717,-5.9795,-5.989,-6.0003,-6.0054,-6.0181,-6.033,-6.0334,-6.05,-6.0599,-6.0779,-6.0846,-6.0976,-6.093,-6.0986,-6.1,-6.1013,-6.1024,-6.0654,-6.1001,-6.1,-6.1,-6.0999,-6.0998,0,-5.9692,-5.9754,-5.9884,-6.0025,-6.0137,-6.0102,-6.0212,-6.0307,-6.0453,-6.0548,-6.0665,-6.084,-6.0981,-6.1051,-6.119,-6.1281,-6.1272,-6.1317,-6.1309,-6.1322,-6.1058,-6.1009,-6.1322,-6.1322,-6.1322,-6.1322,-6.1322,-6.1322,-5.9877,-6.0069,-6.0094,-6.0325,-6.0386,-6.0548,-6.0613,-6.0701,-6.0776,-6.0973,-6.109,-6.1134,-6.122,-6.1366,-6.1494,-6.1511,-6.1562,-6.1613,-6.1623,-6.1374,-6.1341,-6.131,-6.1264,-6.1625,-6.1625,-6.1877,-6.1879,-6.1881]},{"header":{"parameterUnit":"m.s-1","parameterCategory":1,"la1":30.2991,"la2":30.254,"lo1":-89.0895,"lo2":-89.0444,"dy":0.0017,"dx":0.0017,"nx":28,"ny":28,"refTime":"2025-01-12T09:00:00:Z","depth":0,"parameterNumber":3,"parameterNumberName":"V-component_of_WINDS"},"data":[0,0,0,0,0,0,0,0,0,0,0,0,0,0,0,0,0,0,0,0,0,0,0,0,0,0,0,0,0,0,0,0,0,0,0,0,0,0,0,0,0,0,0,0,0,0,0,0,0,0,0,0,0,0,0,0,0,0,-1.0599,-1.0596,0,-1.0293,-1.029,-1.0286,-1.0199,-1.0201,-1.0202,-1.0204,-0.9879,-0.9869,-0.9859,0,0,0,0,0,0,0,0,0,0,0,0,0,-1.1095,-1.1087,-1.06,-1.0596,-1.0592,-1.0294,-1.0289,-1.0285,-1.0199,-1.0201,-1.0203,-1.0205,-0.9883,-0.987,-0.9858,0,0,0,0,0,0,0,0,0,0,0,0,0,-1.0844,-1.1084,-1.06,-1.0513,-1.0502,-1.0294,-1.0289,-1.0284,-1.0198,-1.0201,-1.0203,-1.0206,-0.9887,-0.9872,-0.9856,-0.971,0,0,-0.981,-0.9803,0,0,0,0,0,0,0,0,-1.0858,-1.0825,-1.053,-1.0519,-1.0506,-1.0287,-1.0345,-1.0091,-1.0197,-1.0313,-1.0204,-1.0207,-1.0012,-0.9987,-0.9923,-0.9695,-0.9681,-0.9808,-0.9799,-0.9792,-0.9788,0,0,0,0,0,0,0,-1.0875,-1.0838,-1.0478,-1.0525,-1.0511,-1.0484,-1.0452,-1.0297,-1.0151,-1.0303,-1.0296,-1.0262,-1.0006,-0.9938,-0.9915,-0.9676,-0.9809,-0.9795,-0.9785,-0.9779,-0.9305,-0.9302,0,0,0,0,0,0,-1.091,-1.0853,-1.0488,-1.0469,-1.0692,-1.0474,-1.0437,-1.0355,-1.0153,-1.0125,-1.026,-1.0259,-0.9963,-0.9933,-0.9903,-0.9713,-0.9792,-0.9778,-0.9769,-0.9308,-0.9304,-0.9301,0,0,0,0,0,0,-1.0921,-1.0878,-1.05,-1.0659,-1.0609,-1.0462,-1.0371,-1.0347,-1.0279,-1.0121,-1.0093,-1.0218,-0.9964,-0.9925,-0.9758,-0.9701,-0.9771,-0.9757,-0.9312,-0.9307,-0.9303,-0.9336,0,0,0,0,0,0,-1.0935,-1.0882,-1.0829,-1.0659,-1.0601,-1.0364,-1.0367,-1.0339,-1.0254,-1.025,-1.0074,-1.0047,-0.9963,-0.9781,-0.9743,-0.9681,-0.9745,-0.9317,-0.931,-0.9304,-0.934,-0.9333,-0.9328,0,0,0,0,0,-1.0953,-1.085,-1.0827,-1.0783,-1.0531,-1.0361,-1.0328,-1.0236,-1.025,-1.0192,-1.0089,-1.0053,-0.9715,-0.9765,-0.9721,-0.9654,-0.932,-0.9312,-0.9305,-0.9342,-0.9334,-0.9328,0,0,0,0,0,0,-1.1014,-1.0826,-1.0798,-1.0637,-1.0516,-1.0347,-1.0272,-1.0232,-1.0102,-1.0103,-0.9991,-0.9952,-0.9792,-0.9706,-0.9766,-0.9498,-0.9516,-0.9499,-0.956,-0.9551,-0.9545,-0.9567,-0.9732,0,0,0,0,0,-1.101,-1.0892,-1.0732,-1.0605,-1.0546,-1.042,-1.0342,-1.0282,-1.0151,-1.0098,-0.9983,-0.9854,-0.9717,-0.963,-0.9496,-0.9328,-0.9284,-0.9259,-0.9254,-0.9249,-0.9235,-0.9132,-0.9118,-0.9276,-0.9276,-0.9276,0,0,-1.0997,-1.088,-1.0812,-1.0614,-1.0513,-1.0388,-1.0377,-1.0246,-1.015,-1.0077,-0.9912,-0.9823,-0.967,-0.9501,-0.942,-0.9425,-0.9182,-0.924,-0.9238,-0.9224,-0.9123,-0.9108,-0.9095,-0.927,-0.9271,-0.9272,0,0,-1.091,-1.0813,-1.0693,-1.0593,-1.0441,-1.0357,-1.0329,-1.0164,-1.0103,-0.9937,-0.9877,-0.976,-0.953,-0.9421,-0.9336,-0.9205,-0.9163,-0.9165,-0.9131,-0.9033,-0.9021,-0.9009,-0.8956,-0.8939,-0.9151,-0.9151,-0.9151,0,-1.0913,-1.0727,-1.0636,-1.0507,-1.0419,-1.035,-1.0225,-1.013,-0.9941,-0.9879,-0.9888,-0.9594,-0.9487,-0.9288,-0.9256,-0.9192,-0.915,-0.9182,-0.9031,-0.9018,-0.9005,-0.8953,-0.8935,-0.9152,-0.9152,-0.9152,-0.9152,0,-1.0734,-1.0605,-1.0527,-1.0348,-1.0252,-1.0126,-1.0011,-0.9923,-0.9871,-0.9784,-0.9612,-0.9481,-0.9317,-0.9266,-0.9214,-0.9058,-0.9064,-0.9054,-0.9068,-0.8993,-0.8942,-0.8922,-0.9153,-0.9153,-0.9153,-0.9152,0,0,-1.0676,-1.0449,-1.0421,-1.0336,-1.0163,-1.0059,-0.9927,-0.977,-0.9693,-0.9565,-0.9447,-0.9252,-0.924,-0.9143,-0.9077,-0.8992,-0.8889,-0.899,-0.8985,-0.8971,-0.8701,-0.8707,-0.8686,-0.8862,-0.8858,-0.8855,-0.8712,0,-1.0563,-1.0329,-1.0242,-1.0048,-0.9924,-0.9855,-0.9739,-0.9616,-0.9532,-0.941,-0.9315,-0.9176,-0.9174,-0.9114,-0.9027,-0.892,-0.8832,-0.893,-0.8745,-0.8739,-0.8781,-0.866,-0.8667,-0.8539,-0.8692,-0.8689,-0.8686,0,-1.04,-1.0272,-1.0066,-0.9903,-0.9848,-0.9746,-0.9591,-0.9479,-0.9336,-0.928,-0.9171,-0.911,-0.8963,-0.899,-0.8782,-0.885,-0.8769,-0.8705,-0.8698,-0.8673,-0.8705,-0.8627,-0.8496,-0.8475,-0.8655,-0.8658,-0.866,0,-1.0372,-1.0147,-0.9993,-0.9924,-0.9732,-0.9661,-0.9577,-0.9438,-0.9347,-0.9211,-0.9149,-0.8998,-0.8913,-0.8794,-0.8691,-0.8721,-0.849,-0.851,-0.8433,-0.8435,-0.8384,-0.8388,-0.8233,-0.8341,-0.8342,-0.8342,-0.8342,0,-1.0252,-1.0127,-0.9977,-0.9882,-0.9738,-0.9638,-0.9496,-0.9407,-0.9283,-0.9165,-0.9096,-0.8985,-0.8859,-0.873,-0.8649,-0.8485,-0.8449,-0.8394,-0.8373,-0.8398,-0.8404,-0.834,-0.8344,-0.8337,-0.8338,-0.8339,-0.834,0,-1.0194,-1.009,-0.9917,-0.975,-0.9704,-0.9605,-0.9458,-0.936,-0.9273,-0.9123,-0.9082,-0.8942,-0.8787,-0.8674,-0.8473,-0.8418,-0.8241,-0.8222,-0.829,-0.8278,-0.8206,-0.8212,-0.8,-0.7964,-0.8102,-0.8101,-0.81,0,-1.0123,-1.0025,-0.9847,-0.9765,-0.9682,-0.955,-0.9457,-0.9353,-0.9258,-0.9086,-0.9007,-0.8848,-0.8715,-0.8469,-0.8346,-0.819,-0.8164,-0.81,-0.8139,-0.8165,-0.8155,-0.816,-0.8147,-0.8093,-0.8092,-0.8092,-0.8091,0,-1.0004,-0.9957,-0.9828,-0.9679,-0.9571,-0.9448,-0.9324,-0.9259,-0.9131,-0.9027,-0.8869,-0.8766,-0.8561,-0.8401,-0.8233,-0.814,-0.8091,-0.808,-0.8053,-0.8074,-0.8115,-0.8086,-0.8268,-0.8084,-0.8085,-0.8086,-0.8086,-0.8086,-0.9932,-0.9841,-0.97,-0.9557,-0.9453,-0.9338,-0.9236,-0.9136,-0.9004,-0.883,-0.8776,-0.861,-0.8464,-0.8234,-0.8139,-0.8004,-0.8005,-0.7968,-0.7957,-0.7948,-0.7946,-0.8142,-0.7974,-0.7974,-0.7974,-0.7974,-0.7974,0,-0.9805,-0.9712,-0.9582,-0.941,-0.9296,-0.9266,-0.9125,-0.903,-0.8886,-0.8757,-0.8627,-0.8442,-0.8286,-0.8151,-0.7987,-0.7905,-0.7878,-0.7865,-0.7867,-0.7844,-0.7958,-0.7995,-0.7889,-0.7889,-0.7889,-0.7889,-0.7889,-0.7889,-0.9726,-0.9566,-0.9502,-0.9288,-0.9193,-0.9034,-0.8955,-0.8846,-0.8741,-0.8539,-0.841,-0.8325,-0.819,-0.8015,-0.7868,-0.7832,-0.7772,-0.7763,-0.7721,-0.7828,-0.7838,-0.7847,-0.7881,-0.7753,-0.7753,-0.7618,-0.7617,-0.7616]}]]